Main page
Satellite images Climate Cyclones Lightning AirportsFAQ Languages Contact Newsletter About
Weather : Europe Africa North America South America Asia Australia-Oceania Others

ubon-ratchathani-th, Ubon Ratchathani, Ubon Ratchathani Airport

48407

latitude: , longitude: Thailand, elevation: 15-15N m


METAR: VTUU 160700Z 02012KT 340V050 9999 FEW035 31/20 Q1014 NOSIG